SDA-1665

导读 | 豆包AI

SDA_1665是美国太空发展局(SDA)于2025年10月15日发射的低轨小卫星,隶属于美国“大规模弹性作战太空体系”(PWSA)。作为跟踪层1期卫星,它搭载红外传感器,具备多链路通信能力,可对高超声速导弹等先进威胁进行探测跟踪,数据将通过激光星间链路接入传输层星座,为美军联合全域指挥控制提供天基支撑,是美军弹性导弹预警体系的重要组成部分。

基本信息
目录编号:
65975
目录名称:
SDA_1665
国际标识:
2025-230B
轨道中心:
EARTH
卫星名称:
SDA_1665
卫星全名:
SDA-1665
卫星状态:
在轨 (已飞行197 天)
发射日期:
2025-10-15 UTC
国别 :
美国 (US)
星等 :
--
轨道信息
数据来源 国际轨道数据
星历时间: 2026-04-30T23:53:21+0800
6小时前
查看轨道信息
半长轴: 7334.813km
偏心率: 0.0001043
轨道倾角: 81.300°
近地点辐角 106.894°
升交点赤经 255.789°
平近点角 253.233°
近地点: 955.91km
远地点: 957.442km
周期: 104.194分钟
每日圈数: 13.820356
详细信息
使用方式:
暂无
2D轨道图
3D轨道图
轨道高度分析图
轨道倾角分析图
轨道综合分析图
查看轨道综合分析图